Location: Champignolles
(47.0543°N, 4.5663°E)
Time: 15:58:11
(UTC+00:00)

Cosmos 2285 Rocket - Pass Details

Date: 30 November 2020
Orbit: 971 x 998 km, 74.0° (Epoch: 28 January)

Event Time Altitude Azimuth Distance (km) Brightness Sun altitude
Rises 16:56:59 0° 337° (NNW) 3,718 7.1 -10.3°
Reaches altitude 10° 16:59:34 10° 339° (NNW) 2,762 6.4 -10.7°
Maximum altitude 17:05:59 83° 67° (ENE) 998 4.0 -11.8°
Drops below altitude 10° 17:12:20 10° 157° (SSE) 2,725 6.3 -12.8°
Sets 17:14:51 0° 158° (SSE) 3,666 7.0 -13.2°
